Temperature
27 28 29 29 29 29 29 29 29 29 29 29 29 29 29 28 28 27 27 26 24 24 23 22 22 22 21 21 21 20 20 20 20 19 19 19 19 19 18 18 17 17 16 16
28 28 28 28 28 28 29 28 29 29 29 29 29 29 29 28 28 27 27 25 24 24 22 22 22 22 22 22 21 21 20 20 20 19 19 19 19 18 18 17 17 16 16 16
28 28 28 28 28 28 28 28 28 28 28 29 28 28 29 29 27 26 26 25 25 24 23 23 22 22 22 22 21 21 20 20 20 20 19 19 19 18 18 17 17 16 16 16
28 29 29 28 28 28 28 28 28 27 27 28 28 27 29 29 28 28 26 25 25 24 24 23 23 23 22 22 21 20 20 20 20 20 19 19 19 19 18 17 17 16 15 15
28 28 28 28 28 28 28 28 27 27 27 27 28 27 28 28 27 28 27 26 25 24 23 23 22 22 22 21 20 20 20 20 20 20 19 19 18 18 18 17 16 16 15 15
28 29 28 28 28 28 27 27 27 27 27 26 26 26 27 27 26 27 26 24 23 22 22 21 21 21 21 20 20 19 19 20 20 20 19 19 19 18 18 17 16 16 15 14
28 28 29 28 28 28 28 27 26 26 26 26 26 26 26 25 24 24 23 22 21 19 19 18 19 19 19 19 19 19 19 20 19 19 19 19 18 18 17 16 16 15 15 15
27 27 28 28 27 27 27 26 25 25 25 26 27 26 25 23 21 20 19 18 17 16 15 15 15 15 16 16 17 17 18 18 18 18 18 18 18 17 17 16 16 15 15 15
27 27 28 28 27 27 27 27 27 26 26 25 26 26 25 22 20 18 17 16 15 15 14 14 14 14 13 14 14 14 15 16 16 17 17 18 17 17 16 16 16 15 15 14
28 26 28 28 27 26 26 26 26 25 24 24 25 26 24 20 19 17 16 15 14 14 14 13 13 13 13 13 12 12 13 13 14 14 15 16 16 16 16 16 15 15 15 15
27 26 27 27 27 26 26 26 25 26 25 24 24 24 18 17 16 16 15 14 14 14 13 13 13 12 12 12 12 12 12 12 13 13 13 14 14 14 15 15 15 15 15 15
26 26 26 26 26 26 26 25 25 24 23 24 23 22 16 15 15 14 14 14 13 13 13 13 12 12 12 11 11 11 11 11 11 11 12 12 12 13 13 14 14 14 14 14
26 25 24 26 26 25 25 25 25 24 24 23 23 20 16 15 14 13 13 13 13 13 13 12 12 12 11 11 10 10 10 10 10 10 11 11 11 11 12 12 13 13 13 14
24 25 24 24 25 25 25 24 24 24 23 23 22 20 16 14 14 13 12 11 11 11 11 11 10 10 10 10 9 9 9 9 9 9 9 10 10 10 10 11 12 12 13 13
24 25 25 25 25 24 23 22 22 22 21 21 20 18 14 13 13 11 11 10 10 10 10 10 10 10 9 9 9 9 9 9 9 9 9 9 9 9 9 10 10 11 12 12
23 24 24 24 25 23 21 19 19 18 18 18 17 15 14 12 11 11 10 11 11 11 11 11 10 10 10 10 9 9 9 9 8 8 8 8 8 8 9 9 10 10 11 11
24 23 23 24 24 23 20 16 17 16 16 16 15 14 13 13 12 12 12 12 12 11 11 11 11 11 10 10 10 9 9 9 9 8 8 8 8 8 8 8 9 9 10 11
22 22 23 24 23 21 16 16 15 15 15 14 14 14 14 13 13 13 13 12 12 11 11 10 10 10 10 10 10 10 9 9 9 9 9 9 8 9 9 9 9 9 9 10
21 21 23 23 22 19 15 16 15 15 15 14 14 15 14 13 13 13 13 11 11 10 10 10 9 9 9 9 9 9 9 9 9 9 9 9 9 9 9 9 9 9 9 9
22 21 22 21 20 20 15 16 15 15 15 14 14 14 13 12 13 13 11 10 10 10 9 9 9 9 9 8 8 8 8 8 8 8 8 8 8 8 8 8 8 8 8 8
21 21 20 20 20 17 15 15 16 16 16 14 13 12 12 12 12 11 10 10 9 9 9 8 8 8 8 7 7 7 7 7 7 7 7 7 7 7 7 8 8 8 8 8
19 20 19 19 18 16 15 16 15 14 13 12 12 11 11 11 10 10 10 9 9 9 8 8 8 7 7 7 6 6 7 7 7 7 7 7 7 7 8 8 8 8 8 8
18 17 18 17 17 15 15 14 13 13 12 11 11 11 10 10 10 9 9 9 8 8 8 7 7 6 6 6 6 5 6 6 6 6 6 6 6 6 7 7 7 8 8 8
17 15 16 16 17 15 14 14 13 12 11 10 10 10 10 9 9 9 9 8 8 8 7 7 6 5 5 5 5 5 5 5 5 5 5 5 5 6 6 7 7 8 9 9
16 16 16 16 16 14 14 13 12 11 10 10 10 9 9 9 9 9 8 8 8 7 7 6 5 5 4 4 4 4 4 4 4 4 5 5 5 6 6 7 7 8 8 9
16 16 15 15 14 13 13 12 11 10 10 10 9 9 9 9 8 8 8 8 7 7 6 5 4 4 4 4 4 4 4 4 4 4 4 4 5 5 6 6 7 7 8 8
Wind_Speed
3 4 1 3 2 3 2 5 5 2 4 6 5 5 2 1 5 8 10 11 11 10 9 9 8 8 8 7 7 6 6 6 4 3 3 3 4 4 4 4 3 4 5 5
5 3 4 1 1 2 3 5 5 4 2 7 8 9 5 4 5 6 9 10 11 10 10 10 9 8 8 8 7 7 7 6 5 4 3 3 4 5 5 5 4 5 5 6
3 6 2 1 2 3 4 6 6 8 8 8 9 13 9 7 7 7 8 10 11 11 11 11 11 10 9 8 7 6 6 6 6 5 5 4 5 6 6 6 5 4 5 7
1 2 3 4 3 7 7 4 6 8 11 12 7 13 10 6 9 9 9 9 10 10 10 10 10 10 9 7 6 6 7 7 7 7 7 7 7 7 7 6 5 5 6 7
2 4 6 7 6 7 7 4 7 10 11 12 8 9 6 1 7 7 6 5 6 7 7 6 6 6 5 4 5 6 7 8 8 8 8 8 9 7 6 6 6 7 7 6
3 3 4 6 5 4 3 5 8 9 9 6 1 7 4 5 7 7 4 2 1 0 2 1 1 2 3 5 6 8 8 9 9 9 9 9 9 8 8 8 8 7 7 6
1 1 1 4 7 3 6 10 8 7 5 2 1 7 3 10 11 11 10 10 9 11 11 12 11 10 9 9 9 10 9 9 8 9 9 9 9 9 9 9 8 8 8 7
3 2 4 5 7 10 9 9 9 9 8 8 5 4 6 14 16 16 17 17 18 18 16 16 15 14 13 13 13 11 10 9 7 7 7 7 8 8 8 8 8 8 8 8
5 6 2 2 5 7 7 6 7 10 13 12 7 2 6 15 16 16 17 18 18 17 17 16 16 16 16 16 16 15 13 10 8 7 6 7 8 9 9 8 9 9 8 8
6 10 8 4 3 0 4 6 6 7 8 10 7 7 2 11 12 14 15 16 16 16 16 16 15 16 16 16 16 16 15 14 13 11 9 8 9 9 9 10 10 10 10 10
7 9 10 7 7 7 3 2 4 7 7 10 14 5 6 9 9 10 12 13 14 15 15 15 14 15 15 15 15 15 15 15 15 15 14 13 11 11 10 10 11 11 11 11
4 8 11 10 0 1 4 4 4 6 8 9 13 3 8 8 8 9 10 12 13 14 14 15 15 14 14 15 15 15 15 15 15 15 15 14 14 13 12 12 13 12 12 12
4 7 11 7 5 5 4 3 6 8 10 10 13 1 7 6 7 9 12 14 15 16 17 17 16 15 15 15 15 14 14 14 15 15 15 15 15 15 15 15 14 14 14 14
5 10 12 12 10 8 7 6 7 10 11 12 10 3 6 8 10 12 14 16 17 17 17 16 16 15 14 14 14 13 14 13 14 15 15 15 15 16 17 17 16 15 14 15
3 8 9 10 9 5 4 6 7 6 8 9 8 5 7 10 12 13 15 16 18 17 16 15 14 13 13 12 11 11 12 11 11 12 12 12 13 14 15 16 16 16 15 16
3 6 8 10 4 1 6 9 6 5 6 6 4 2 7 11 11 14 16 18 20 19 19 18 18 17 17 16 15 15 15 14 13 13 13 12 12 12 13 14 16 16 16 15
3 5 7 9 2 8 2 9 9 5 4 6 5 7 13 15 16 17 20 22 21 21 22 23 23 22 21 21 20 19 18 17 16 16 16 15 14 14 13 13 14 14 14 14
4 5 5 9 10 8 7 6 7 6 4 2 4 11 16 19 21 22 22 19 21 24 26 25 24 24 24 24 23 22 22 21 19 19 18 17 17 16 15 14 13 12 12 12
5 5 6 7 10 4 5 6 9 10 10 6 10 20 22 23 25 22 18 22 25 27 26 26 26 27 26 25 24 24 23 22 21 21 20 19 18 18 17 16 15 12 11 11
3 5 6 6 9 5 5 9 11 9 8 2 18 23 25 26 24 22 24 26 27 27 26 26 27 27 26 25 24 24 24 24 23 22 21 20 19 18 18 17 16 14 11 11
7 5 6 7 7 3 6 11 13 11 13 20 23 24 25 25 24 27 30 29 28 28 28 27 27 25 24 24 24 25 24 24 23 22 21 20 19 19 19 17 16 15 13 12
6 6 6 7 6 2 8 11 10 15 20 22 24 24 25 27 29 29 30 30 29 29 28 28 25 24 23 23 24 24 24 23 22 21 21 20 19 18 17 16 15 14 13 12
3 5 5 5 4 3 9 13 15 17 21 23 22 25 27 29 30 31 30 29 29 28 27 25 25 25 23 21 21 24 24 23 22 21 20 19 19 17 17 16 15 14 13 12
2 1 4 5 4 9 15 15 16 19 22 23 24 26 28 30 31 31 30 28 29 28 26 25 25 25 24 23 23 23 23 22 21 21 20 17 17 17 17 14 14 14 13 12
2 1 4 8 9 14 13 18 21 21 22 24 25 26 28 29 30 31 29 29 28 27 25 24 23 23 25 24 23 23 22 21 21 20 18 16 16 16 15 14 13 14 13 9
1 2 5 7 12 16 21 21 22 22 23 25 27 28 27 28 30 30 29 28 27 27 26 25 25 25 25 25 24 22 21 21 20 18 16 14 12 12 13 13 13 13 12 7
Wind_Direction
248 247 84 57 348 353 281 262 255 281 352 317 322 321 321 201 205 198 196 191 192 189 175 177 174 170 166 163 169 176 176 170 186 198 231 242 257 265 265 265 271 278 292 301
216 110 51 42 199 239 263 261 261 250 305 307 304 296 275 233 227 222 211 204 203 194 187 182 174 169 164 158 162 167 174 173 191 192 229 259 288 279 283 278 266 274 290 298
21 50 30 236 200 277 286 290 299 304 306 268 282 275 240 224 227 232 233 226 217 211 202 185 177 174 172 168 175 184 187 194 210 214 229 234 244 255 254 259 258 272 295 298
328 30 336 296 300 305 298 311 295 295 294 295 295 292 276 251 245 238 235 232 227 219 209 187 181 183 184 183 192 205 213 219 222 227 241 254 270 283 294 290 288 289 284 291
339 335 314 308 328 307 319 323 282 290 292 289 274 280 294 220 274 259 245 243 240 222 202 185 193 195 202 216 230 233 235 235 232 234 240 249 259 273 279 280 275 279 282 280
312 301 313 327 322 308 296 262 256 256 266 268 13 306 308 24 359 346 358 7 352 31 79 66 17 322 301 292 279 267 255 249 241 235 240 244 258 266 274 274 282 278 282 280
255 190 44 324 311 281 277 286 284 271 255 301 71 293 8 42 32 25 26 35 42 40 34 28 19 5 350 336 320 304 288 272 257 244 242 243 248 253 255 264 271 278 289 289
284 302 17 356 339 318 302 288 281 293 298 306 286 275 69 64 53 51 51 50 48 47 43 39 33 27 17 9 358 345 327 307 291 269 259 254 250 252 256 253 272 279 286 293
300 309 338 347 327 312 304 287 307 286 280 280 280 237 122 64 56 51 50 50 47 44 42 38 34 30 26 22 17 11 4 355 343 322 297 271 258 257 260 259 255 266 271 281
292 296 306 320 261 60 320 311 285 281 288 287 279 260 335 30 38 44 42 41 37 34 32 30 26 23 20 18 17 15 14 11 4 352 334 311 288 271 262 259 261 264 268 270
290 289 296 295 315 328 292 277 300 285 286 290 291 303 52 47 43 37 35 29 24 19 17 14 12 9 7 6 7 6 6 5 3 359 350 337 321 302 284 271 265 261 260 260
300 292 296 300 350 221 288 318 316 305 295 282 283 299 75 67 49 28 15 8 3 359 356 354 354 354 355 355 354 354 352 353 351 350 347 345 337 327 311 294 282 271 262 256
296 280 289 284 189 197 258 283 301 300 288 281 288 18 93 57 24 7 354 348 343 341 340 340 342 342 343 343 342 341 339 340 337 337 336 337 337 335 328 316 302 286 270 259
277 263 274 291 309 313 294 300 304 289 286 292 311 31 69 16 353 343 338 332 327 326 327 328 328 328 329 328 328 327 327 327 326 326 324 324 326 327 325 321 315 301 283 266
267 264 270 280 291 294 333 352 348 332 331 314 340 9 21 353 333 320 313 311 310 310 311 309 306 304 302 302 302 301 300 300 302 303 303 303 308 312 314 316 316 309 294 274
285 285 286 275 270 186 76 31 22 24 4 349 338 36 357 324 305 297 298 302 303 305 306 305 302 300 300 300 299 296 292 289 285 283 282 281 284 290 296 302 307 306 299 285
290 286 285 290 277 235 121 24 10 12 357 345 342 330 320 312 309 309 309 305 306 310 311 310 307 305 304 302 300 295 292 290 287 283 281 277 272 270 274 281 289 295 298 293
339 311 285 295 290 278 83 49 15 337 286 271 305 315 317 313 313 310 303 310 316 315 312 309 306 304 301 300 298 296 293 291 288 285 283 282 276 270 267 268 274 282 293 296
15 331 309 310 305 119 113 23 353 317 291 248 304 321 321 319 312 306 320 325 315 310 308 306 304 302 301 299 296 294 292 289 287 285 284 283 280 275 271 269 270 275 284 292
10 344 322 328 310 320 63 4 332 297 276 334 324 320 320 318 313 315 322 315 310 309 307 304 303 301 299 298 297 294 291 288 284 283 282 281 280 276 272 270 270 271 276 282
346 350 354 329 313 73 23 340 326 309 320 326 318 317 314 312 307 308 312 312 311 308 306 305 304 302 300 299 296 291 288 285 285 284 281 277 276 274 268 264 262 262 265 276
343 343 349 330 322 32 2 335 330 312 312 313 314 313 311 308 307 309 310 310 309 308 307 307 306 303 302 299 296 291 287 286 285 282 278 274 271 270 267 258 254 254 259 265
5 2 337 335 330 342 328 314 310 313 313 314 313 311 310 309 309 310 310 309 308 308 307 307 306 303 301 298 295 291 289 287 285 280 275 272 269 264 261 260 253 249 246 253
118 298 304 294 288 311 311 309 317 320 315 312 310 310 310 308 309 310 309 309 308 308 308 307 305 302 299 297 293 288 288 286 282 277 273 269 265 260 253 249 247 245 245 245
53 285 297 286 304 311 309 322 324 318 313 311 310 310 309 309 309 309 309 308 309 308 307 306 303 300 298 296 292 289 287 284 280 275 270 265 260 256 254 248 243 244 244 247
166 323 313 313 322 313 313 320 318 315 315 314 314 312 312 310 309 309 308 308 308 307 307 306 303 301 299 297 293 289 286 283 278 273 265 257 252 250 247 244 236 221 232 186
Height
1512 1508 1504 1504 1503 1502 1503 1503 1503 1500 1499 1498 1498 1496 1495 1497 1498 1499 1501 1504 1507 1509 1511 1513 1514 1515 1517 1518 1520 1521 1522 1523 1523 1524 1525 1524 1524 1523 1522 1521 1519 1518 1517 1515
1509 1507 1506 1506 1506 1505 1503 1504 1503 1500 1499 1500 1499 1496 1493 1496 1497 1498 1499 1502 1505 1507 1509 1510 1511 1514 1516 1517 1519 1520 1521 1522 1522 1523 1522 1522 1521 1521 1520 1519 1517 1515 1513 1511
1507 1508 1507 1505 1505 1505 1504 1504 1503 1504 1500 1498 1500 1497 1491 1492 1496 1498 1499 1500 1503 1505 1507 1508 1511 1513 1515 1517 1519 1520 1520 1520 1521 1521 1521 1520 1519 1518 1517 1516 1514 1512 1510 1508
1506 1505 1506 1504 1504 1505 1505 1501 1504 1505 1506 1501 1500 1508 1489 1487 1491 1494 1496 1498 1501 1503 1506 1508 1510 1513 1515 1516 1517 1518 1518 1518 1518 1518 1519 1519 1518 1517 1515 1513 1512 1509 1506 1503
1508 1506 1506 1506 1504 1505 1503 1503 1503 1503 1504 1505 1499 1504 1491 1489 1492 1490 1493 1497 1500 1503 1505 1508 1510 1512 1514 1516 1516 1516 1515 1515 1515 1516 1516 1515 1515 1513 1512 1510 1507 1504 1503 1499
1507 1507 1506 1505 1504 1504 1504 1504 1502 1501 1500 1509 1504 1508 1500 1492 1496 1493 1495 1499 1502 1504 1506 1508 1509 1512 1514 1514 1515 1514 1513 1513 1512 1512 1512 1511 1511 1509 1508 1506 1504 1502 1500 1497
1509 1504 1504 1505 1503 1501 1503 1507 1512 1510 1507 1506 1501 1504 1502 1501 1503 1503 1503 1503 1505 1506 1507 1507 1509 1510 1511 1511 1511 1511 1509 1508 1508 1508 1507 1507 1506 1505 1504 1502 1501 1499 1497 1495
1515 1513 1504 1504 1506 1507 1502 1506 1516 1522 1515 1504 1496 1501 1501 1507 1511 1512 1512 1512 1511 1512 1512 1511 1511 1511 1510 1508 1507 1505 1504 1503 1502 1502 1502 1502 1501 1501 1500 1498 1497 1495 1493 1491
1511 1512 1503 1505 1506 1505 1503 1500 1498 1506 1505 1509 1499 1495 1499 1510 1515 1518 1519 1518 1518 1518 1517 1516 1515 1513 1511 1508 1505 1503 1501 1499 1498 1497 1496 1496 1496 1495 1494 1493 1491 1490 1488 1486
1507 1514 1503 1503 1504 1505 1505 1502 1503 1506 1516 1515 1501 1498 1501 1514 1519 1523 1524 1524 1523 1522 1520 1519 1517 1515 1512 1510 1506 1503 1500 1497 1495 1493 1492 1492 1491 1489 1488 1487 1486 1484 1483 1481
1507 1514 1506 1501 1503 1506 1505 1505 1505 1502 1507 1517 1514 1506 1523 1525 1528 1528 1529 1528 1527 1525 1523 1520 1518 1515 1513 1510 1507 1503 1499 1496 1493 1490 1488 1486 1485 1484 1482 1481 1480 1479 1477 1476
1510 1509 1511 1503 1501 1505 1504 1504 1506 1514 1511 1507 1509 1515 1528 1530 1532 1533 1532 1531 1529 1526 1523 1521 1518 1515 1511 1508 1504 1501 1498 1495 1492 1489 1486 1483 1480 1478 1476 1475 1474 1473 1471 1470
1511 1514 1516 1506 1506 1504 1504 1504 1504 1505 1504 1505 1508 1518 1530 1533 1534 1534 1533 1531 1528 1525 1522 1518 1515 1512 1508 1505 1501 1497 1494 1491 1488 1485 1482 1479 1476 1473 1470 1468 1467 1466 1465 1463
1514 1511 1515 1517 1508 1503 1504 1504 1504 1505 1505 1504 1504 1513 1528 1533 1534 1534 1532 1529 1526 1522 1518 1514 1510 1507 1503 1499 1496 1492 1488 1485 1481 1478 1476 1473 1470 1468 1465 1463 1460 1459 1458 1457
1513 1508 1504 1502 1500 1503 1508 1512 1511 1511 1512 1511 1514 1521 1531 1535 1536 1534 1530 1526 1521 1517 1513 1509 1504 1500 1496 1492 1489 1485 1482 1478 1474 1470 1467 1464 1462 1459 1458 1456 1454 1452 1451 1449
1512 1510 1506 1505 1501 1505 1516 1522 1521 1523 1523 1522 1525 1531 1536 1536 1534 1530 1526 1521 1516 1511 1507 1503 1499 1495 1491 1487 1483 1479 1476 1472 1468 1464 1460 1456 1454 1452 1450 1449 1447 1446 1444 1442
1509 1512 1510 1504 1500 1507 1520 1534 1530 1531 1532 1529 1531 1535 1534 1530 1527 1523 1519 1514 1509 1505 1502 1497 1493 1489 1485 1481 1477 1473 1469 1465 1462 1458 1455 1451 1449 1446 1444 1443 1442 1440 1438 1435
1516 1513 1510 1504 1505 1515 1539 1538 1537 1536 1534 1534 1534 1531 1528 1525 1521 1518 1512 1507 1503 1500 1496 1490 1486 1481 1477 1472 1468 1464 1460 1457 1454 1451 1447 1445 1443 1441 1439 1438 1436 1434 1431 1428
1519 1516 1509 1509 1508 1523 1538 1537 1538 1536 1530 1530 1530 1526 1523 1519 1514 1508 1505 1503 1500 1494 1488 1483 1478 1472 1467 1463 1459 1454 1450 1447 1444 1441 1439 1437 1435 1433 1432 1431 1429 1427 1425 1422
1517 1517 1512 1514 1520 1520 1539 1538 1537 1534 1526 1528 1527 1522 1519 1514 1505 1499 1500 1497 1492 1486 1480 1474 1468 1463 1458 1453 1449 1444 1440 1437 1434 1431 1429 1427 1426 1424 1423 1422 1421 1420 1419 1417
1522 1519 1522 1522 1519 1527 1539 1537 1533 1529 1525 1527 1524 1520 1516 1510 1505 1498 1492 1488 1483 1477 1471 1465 1459 1453 1448 1444 1439 1434 1430 1426 1424 1421 1419 1417 1416 1415 1413 1413 1413 1413 1412 1411
1528 1524 1526 1524 1525 1535 1538 1535 1534 1533 1529 1525 1521 1516 1510 1504 1498 1492 1486 1480 1473 1467 1461 1455 1448 1442 1438 1434 1429 1423 1419 1416 1413 1410 1408 1406 1405 1405 1404 1404 1404 1404 1404 1404
1532 1537 1532 1534 1535 1538 1537 1536 1534 1531 1526 1522 1517 1511 1505 1498 1490 1483 1477 1470 1464 1457 1451 1445 1439 1432 1427 1423 1418 1412 1407 1405 1402 1399 1397 1396 1395 1394 1394 1395 1396 1397 1397 1397
1538 1542 1538 1536 1533 1536 1535 1532 1530 1527 1523 1517 1512 1506 1499 1491 1483 1475 1468 1460 1454 1447 1441 1435 1428 1421 1415 1410 1406 1400 1396 1393 1390 1387 1385 1385 1384 1384 1385 1386 1387 1389 1390 1390
1539 1540 1537 1535 1534 1534 1530 1529 1526 1522 1517 1512 1506 1500 1493 1485 1476 1468 1460 1452 1444 1437 1430 1424 1417 1409 1402 1397 1392 1388 1384 1380 1377 1375 1374 1374 1374 1374 1375 1377 1378 1380 1383 1384
1539 1540 1538 1536 1536 1534 1528 1525 1521 1516 1511 1505 1498 1491 1485 1479 1469 1461 1452 1444 1436 1427 1420 1412 1405 1398 1391 1385 1379 1375 1371 1368 1365 1362 1362 1363 1364 1365 1367 1368 1370 1372 1376 1378